�N����,����,�~����,�C��,���x,�C��,����,���ϕ���,�ő�u�ԕ���,�ő厞����,���˗�,�I�_���x,�n�����x,�ő啗���N��,DTYPE
"16/05/09","00:10",0.0,14.3,78.3,1011.9,298.7,0.8,1.3,327.5,0.00,10.6,17.4,"00:08:00",1
"16/05/09","00:20",0.0,14.3,78.8,1012.1,314.1,1.3,1.6,316.5,0.00,10.7,17.6,"00:13:12",1
"16/05/09","00:30",0.0,14.2,78.7,1011.9,304.3,1.0,1.6,315.3,0.00,10.6,17.6,"00:23:36",1
"16/05/09","00:40",0.0,14.2,78.8,1011.6,294.2,1.0,1.2,311.7,0.00,10.6,17.3,"00:31:20",1
"16/05/09","00:50",0.0,14.3,78.4,1011.6,296.0,1.0,1.6,322.2,0.00,10.6,17.5,"00:41:36",1
"16/05/09","01:00",0.0,14.4,79.5,1011.6,316.0,1.2,1.8,323.3,0.00,10.9,17.2,"00:54:24",1
"16/05/09","01:10",0.0,14.4,80.5,1011.6,304.6,1.1,1.9,324.0,0.00,11.1,17.2,"01:06:08",1
"16/05/09","01:20",0.0,14.4,80.8,1011.4,325.7,0.7,1.7,333.7,0.00,11.2,17.2,"01:18:00",1
"16/05/09","01:30",0.0,14.3,80.4,1011.6,310.7,1.0,1.6,329.9,0.00,11.0,17.5,"01:29:04",1
"16/05/09","01:40",0.0,14.3,81.7,1011.4,300.0,1.0,1.2,315.7,0.00,11.3,17.1,"01:33:12",1
"16/05/09","01:50",0.0,14.2,82.1,1011.6,297.6,0.7,1.1,297.1,0.00,11.2,17.1,"01:40:56",1
"16/05/09","02:00",0.0,14.3,81.3,1011.4,303.5,1.0,1.2,317.0,0.00,11.2,17.2,"01:58:16",1
"16/05/09","02:10",0.0,14.5,81.5,1011.2,323.8,1.2,1.8,332.4,0.00,11.4,17.3,"02:06:48",1
"16/05/09","02:20",0.0,14.5,81.9,1010.9,315.3,1.2,1.8,321.8,0.00,11.5,17.0,"02:11:36",1
"16/05/09","02:30",0.0,14.5,82.2,1011.4,301.4,1.0,1.3,301.7,0.00,11.5,17.2,"02:21:04",1
"16/05/09","02:40",0.0,14.6,82.2,1011.2,305.1,0.8,1.2,300.1,0.00,11.6,17.0,"02:30:40",1
"16/05/09","02:50",0.0,14.6,82.7,1011.2,302.9,1.0,1.3,322.2,0.00,11.7,17.1,"02:41:20",1
"16/05/09","03:00",0.0,14.6,83.0,1010.9,309.4,0.8,1.3,322.1,0.00,11.8,17.0,"02:55:52",1
"16/05/09","03:10",0.0,14.7,83.5,1011.2,301.4,1.1,1.6,324.3,0.00,12.0,17.0,"03:00:08",1
"16/05/09","03:20",0.0,14.9,83.3,1010.9,352.2,0.6,1.9,333.7,0.00,12.1,17.0,"03:18:40",1
"16/05/09","03:30",0.0,15.1,83.3,1010.9,301.0,1.0,1.4,303.1,0.00,12.3,16.9,"03:27:36",1
"16/05/09","03:40",0.0,15.1,83.3,1010.9,320.4,1.1,1.6,315.8,0.00,12.3,17.1,"03:36:48",1
"16/05/09","03:50",0.0,15.1,83.6,1010.7,285.3,0.7,1.1,301.0,0.00,12.4,16.7,"03:47:12",1
"16/05/09","04:00",0.0,15.2,83.6,1010.9,314.4,1.1,1.4,328.8,0.00,12.5,17.0,"03:54:00",1
"16/05/09","04:10",0.0,15.4,83.4,1011.4,298.9,1.0,1.4,306.1,0.00,12.6,16.9,"04:01:04",1
"16/05/09","04:20",0.0,15.4,83.7,1011.4,297.8,0.8,1.3,307.8,0.00,12.7,17.0,"04:11:28",1
"16/05/09","04:30",0.0,15.4,83.9,1011.4,303.5,0.8,1.3,311.2,0.00,12.7,17.0,"04:20:02",1
"16/05/09","04:40",0.0,15.5,84.0,1011.4,307.6,1.2,1.4,314.6,0.00,12.9,16.8,"04:32:00",1
"16/05/09","04:50",0.0,15.5,84.1,1011.4,303.7,1.0,1.2,304.1,0.00,12.9,16.9,"04:41:04",1
"16/05/09","05:00",0.0,15.6,84.7,1011.2,290.3,0.8,1.0,298.3,0.00,13.1,17.0,"04:50:40",1
"16/05/09","05:10",0.0,15.7,84.8,1010.9,307.3,1.0,1.3,314.0,0.00,13.2,16.8,"05:01:28",1
"16/05/09","05:20",0.0,15.7,85.4,1011.2,303.2,0.7,1.2,314.6,0.00,13.3,16.8,"05:19:20",1
"16/05/09","05:30",0.0,15.7,86.4,1011.4,315.2,1.1,1.4,323.3,0.00,13.5,16.7,"05:21:20",1
"16/05/09","05:40",0.0,15.7,87.1,1011.4,295.4,0.7,1.1,309.5,0.00,13.6,16.8,"05:32:08",1
"16/05/09","05:50",0.0,15.7,88.0,1011.2,307.5,1.0,1.2,317.6,0.00,13.8,17.0,"05:47:28",1
"16/05/09","06:00",0.0,15.8,88.7,1011.2,302.5,1.0,1.3,304.9,0.00,14.0,16.8,"05:50:32",1
"16/05/09","06:10",0.0,15.8,89.6,1011.4,307.1,1.0,1.3,317.8,0.00,14.1,16.8,"06:01:04",1
"16/05/09","06:20",0.2,15.9,90.3,1011.6,297.3,0.7,1.1,316.3,0.00,14.4,16.7,"06:15:04",1
"16/05/09","06:30",0.0,15.9,90.8,1011.4,298.5,0.8,1.1,318.4,0.00,14.4,16.7,"06:27:20",1
"16/05/09","06:40",0.2,16.0,91.3,1011.6,294.6,1.1,1.4,314.5,0.00,14.6,16.6,"06:36:08",1
"16/05/09","06:50",0.0,16.1,91.8,1011.9,292.2,1.0,1.4,306.2,0.00,14.8,16.9,"06:43:36",1
"16/05/09","07:00",0.0,16.4,92.3,1011.9,303.8,1.2,1.8,320.9,0.02,15.2,17.0,"06:53:36",1
"16/05/09","07:10",0.2,16.5,92.3,1011.6,318.1,1.5,1.9,322.5,0.02,15.3,17.0,"07:02:16",1
"16/05/09","07:20",0.2,16.6,92.3,1011.6,332.0,1.3,1.7,341.7,0.03,15.4,16.8,"07:14:16",1
"16/05/09","07:30",0.0,16.7,92.6,1011.4,312.3,1.3,1.9,329.3,0.01,15.5,16.9,"07:21:04",1
"16/05/09","07:40",0.4,16.7,92.6,1011.4,290.1,0.5,1.1,289.2,0.01,15.5,17.1,"07:35:52",1
"16/05/09","07:50",0.2,16.8,92.7,1011.4,297.0,0.5,1.1,323.7,0.01,15.7,17.1,"07:40:16",1
"16/05/09","08:00",0.2,16.8,92.7,1011.2,298.2,1.1,1.7,297.0,0.02,15.7,17.2,"07:55:20",1
"16/05/09","08:10",0.4,16.8,92.9,1011.4,246.0,0.8,1.3,291.9,0.00,15.7,17.2,"08:00:08",1
"16/05/09","08:20",0.2,16.9,92.9,1011.2,211.4,0.7,2.9,157.9,0.02,15.8,17.0,"08:18:24",1
"16/05/09","08:30",0.0,17.1,92.6,1010.9,127.3,0.6,1.4,9.8,0.05,15.9,17.1,"08:26:56",1
"16/05/09","08:40",0.2,17.1,91.8,1010.9,125.2,0.8,2.1,123.5,0.03,15.8,16.9,"08:38:24",1
"16/05/09","08:50",0.2,17.1,91.3,1010.9,128.6,0.8,2.6,117.0,0.02,15.7,17.2,"08:47:52",1
"16/05/09","09:00",0.2,17.0,91.7,1010.9,186.6,1.0,2.7,192.4,0.03,15.7,17.2,"08:50:32",1
"16/05/09","09:10",0.4,16.9,92.2,1010.4,182.5,1.0,2.0,156.5,0.04,15.7,17.1,"09:02:48",1
"16/05/09","09:20",0.2,16.8,92.7,1011.2,169.1,0.8,2.2,118.6,0.03,15.7,16.9,"09:11:04",1
"16/05/09","09:30",0.0,17.0,92.5,1010.9,185.7,1.0,2.2,171.3,0.08,15.8,17.2,"09:21:28",1
"16/05/09","09:40",0.2,17.2,92.5,1010.9,177.7,0.5,1.9,194.5,0.09,16.0,17.3,"09:31:04",1
"16/05/09","09:50",0.2,17.3,91.3,1010.4,203.5,0.3,1.0,17.5,0.12,15.9,17.1,"09:49:36",1
"16/05/09","10:00",0.2,17.6,90.7,1010.7,229.9,0.5,1.0,200.6,0.09,16.1,17.1,"09:59:36",1
"16/05/09","10:10",0.2,17.6,90.7,1010.4,295.1,0.5,1.0,274.7,0.08,16.1,17.3,"10:08:48",1
"16/05/09","10:20",0.2,17.6,91.2,1010.7,281.5,0.6,1.3,269.5,0.07,16.2,17.4,"10:14:24",1
"16/05/09","10:30",0.4,17.7,91.7,1010.4,294.8,0.7,1.3,240.0,0.07,16.4,17.3,"10:26:32",1
"16/05/09","10:40",0.4,18.0,91.9,1010.2,298.2,0.6,1.1,321.5,0.09,16.7,17.3,"10:33:20",1
"16/05/09","10:50",0.2,18.0,91.5,1010.2,291.9,0.5,1.0,238.3,0.07,16.6,17.6,"10:41:44",1
"16/05/09","11:00",0.4,18.0,91.3,1010.2,302.8,0.8,2.5,244.5,0.08,16.6,17.5,"10:58:08",1
"16/05/09","11:10",0.2,18.1,91.1,1009.7,180.8,0.7,1.6,231.4,0.05,16.7,17.5,"11:06:56",1
"16/05/09","11:20",0.4,18.2,91.1,1009.7,156.8,0.8,2.7,149.6,0.04,16.8,17.4,"11:17:36",1
"16/05/09","11:30",0.6,18.3,90.8,1009.5,114.1,0.7,2.2,113.3,0.04,16.8,17.5,"11:21:44",1
"16/05/09","11:40",0.6,18.2,90.7,1009.5,102.6,0.8,1.9,97.2,0.04,16.7,17.6,"11:32:48",1
"16/05/09","11:50",0.6,18.1,90.2,1009.5,121.0,0.8,2.9,121.9,0.03,16.5,17.5,"11:48:16",1
"16/05/09","12:00",0.4,18.0,90.0,1009.5,120.9,1.2,2.4,118.1,0.03,16.4,17.7,"11:54:40",1
"16/05/09","12:10",0.2,18.1,90.1,1009.5,111.4,1.1,2.8,123.4,0.05,16.5,17.5,"12:05:52",1
"16/05/09","12:20",0.4,18.0,89.5,1009.5,125.0,1.5,3.7,109.7,0.03,16.3,17.6,"12:19:12",1
"16/05/09","12:30",0.2,18.0,89.2,1009.5,132.2,1.5,3.3,128.7,0.05,16.2,17.5,"12:28:16",1
"16/05/09","12:40",0.2,17.9,88.2,1009.3,125.3,1.7,3.5,138.6,0.05,16.0,17.6,"12:34:40",1
"16/05/09","12:50",0.4,17.8,88.6,1009.3,113.3,2.1,4.0,104.2,0.05,15.9,17.6,"12:42:40",1
"16/05/09","13:00",0.0,17.4,88.8,1009.0,116.1,1.5,3.9,125.9,0.03,15.6,17.7,"12:50:16",1
"16/05/09","13:10",0.4,17.4,89.9,1009.3,130.3,1.2,2.7,115.8,0.03,15.8,17.6,"13:02:48",1
"16/05/09","13:20",0.4,17.4,90.3,1009.3,135.2,1.2,2.5,130.1,0.05,15.8,17.7,"13:19:12",1
"16/05/09","13:30",0.4,17.3,90.6,1008.8,141.3,1.1,2.2,105.5,0.05,15.8,17.7,"13:22:16",1
"16/05/09","13:40",0.6,17.3,90.8,1008.6,152.0,1.3,3.1,202.3,0.03,15.8,17.4,"13:31:12",1
"16/05/09","13:50",0.4,17.3,91.5,1008.6,133.7,0.6,1.8,93.3,0.03,15.9,17.5,"13:46:56",1
"16/05/09","14:00",0.2,17.3,92.0,1008.6,112.9,0.7,1.7,126.9,0.02,16.0,17.5,"13:54:48",1
"16/05/09","14:10",0.4,17.3,91.9,1007.8,108.4,0.8,1.9,135.5,0.03,16.0,17.6,"14:09:32",1
"16/05/09","14:20",0.4,17.3,91.0,1007.8,102.0,1.1,2.5,94.4,0.06,15.9,17.5,"14:17:36",1
"16/05/09","14:30",0.2,17.5,91.2,1007.8,69.4,0.5,1.4,73.5,0.05,16.1,17.4,"14:23:20",1
"16/05/09","14:40",0.2,17.4,91.1,1007.4,61.9,0.6,1.8,128.8,0.03,16.0,17.5,"14:30:56",1
"16/05/09","14:50",0.0,17.3,91.0,1007.4,5.1,0.3,1.2,118.2,0.02,15.9,17.5,"14:40:40",1
"16/05/09","15:00",0.4,17.2,90.9,1007.1,16.7,0.6,1.3,356.5,0.04,15.7,17.7,"14:57:44",1
"16/05/09","15:10",0.8,17.1,91.3,1007.1,30.3,0.5,1.3,357.4,0.02,15.7,17.5,"15:03:44",1
"16/05/09","15:20",0.4,16.9,91.5,1007.4,29.6,0.6,2.6,66.4,0.01,15.5,17.7,"15:14:56",1
"16/05/09","15:30",0.4,16.7,91.8,1007.6,37.5,0.6,1.7,351.4,0.01,15.4,17.7,"15:24:24",1
"16/05/09","15:40",0.4,16.7,92.1,1007.1,75.7,0.3,1.2,340.7,0.02,15.5,17.7,"15:35:12",1
"16/05/09","15:50",0.8,16.7,92.4,1007.1,140.3,0.5,1.2,135.3,0.03,15.5,17.7,"15:43:36",1
"16/05/09","16:00",0.6,16.7,92.4,1006.9,129.1,0.6,1.3,112.4,0.02,15.5,17.6,"15:56:56",1
"16/05/09","16:10",0.6,16.6,92.8,1006.9,81.4,0.3,1.2,128.1,0.01,15.5,17.6,"16:00:08",1
"16/05/09","16:20",0.4,16.6,93.0,1007.4,266.5,0.3,1.2,335.1,0.01,15.5,17.3,"16:14:08",1
"16/05/09","16:30",0.2,16.5,93.1,1007.1,151.4,0.3,0.8,92.8,0.01,15.4,17.6,"16:21:28",1
"16/05/09","16:40",0.2,16.5,93.6,1006.7,108.4,0.5,1.2,115.3,0.01,15.5,17.5,"16:31:52",1
"16/05/09","16:50",0.2,16.4,93.8,1006.7,130.4,0.5,1.2,90.7,0.00,15.4,17.7,"16:48:16",1
"16/05/09","17:00",0.0,16.4,94.1,1006.7,69.8,0.6,1.1,50.1,0.00,15.5,17.5,"16:50:48",1
"16/05/09","17:10",0.2,16.4,94.4,1006.4,118.0,0.3,0.8,51.8,0.00,15.5,17.7,"17:00:08",1
"16/05/09","17:20",0.4,16.3,94.6,1006.9,64.8,0.8,1.7,53.0,0.00,15.5,17.6,"17:15:20",1
"16/05/09","17:30",0.4,16.3,94.5,1006.9,80.6,0.7,1.9,37.7,0.00,15.5,17.4,"17:21:20",1
"16/05/09","17:40",0.6,16.1,94.5,1006.9,88.1,0.7,1.4,22.2,0.00,15.3,17.3,"17:36:16",1
"16/05/09","17:50",0.4,16.0,94.2,1006.4,92.2,0.7,1.4,55.6,0.00,15.1,17.3,"17:42:56",1
"16/05/09","18:00",0.2,15.8,94.4,1006.7,123.2,0.3,1.2,108.4,0.00,14.9,17.4,"17:50:56",1
"16/05/09","18:10",0.6,15.8,94.5,1006.4,201.8,0.5,1.0,237.8,0.00,15.0,17.2,"18:04:16",1
"16/05/09","18:20",0.6,15.8,94.5,1006.4,194.0,0.5,1.0,178.9,0.00,15.0,17.3,"18:18:16",1
"16/05/09","18:30",0.2,15.6,94.6,1006.4,164.1,0.2,1.0,194.0,0.00,14.8,17.7,"18:20:16",1
"16/05/09","18:40",0.0,15.6,94.7,1006.4,186.2,0.2,0.6,129.9,0.00,14.8,17.4,"18:30:24",1
"16/05/09","18:50",0.0,15.6,94.9,1006.4,233.6,0.3,1.1,232.1,0.00,14.8,17.2,"18:47:20",1
"16/05/09","19:00",0.0,15.5,95.0,1006.4,294.9,0.3,0.6,301.0,0.00,14.7,17.3,"18:54:00",1
"16/05/09","19:10",0.0,15.5,95.3,1006.9,278.3,0.3,1.0,241.4,0.00,14.8,17.3,"19:07:28",1
"16/05/09","19:20",0.0,15.4,95.4,1006.4,280.8,0.5,0.8,285.0,0.00,14.7,17.2,"19:17:12",1
"16/05/09","19:30",0.6,15.3,95.5,1006.9,256.6,0.5,0.9,243.4,0.00,14.6,17.4,"19:24:40",1
"16/05/09","19:40",0.4,15.3,95.8,1006.9,262.1,0.3,0.8,248.0,0.00,14.7,17.2,"19:32:24",1
"16/05/09","19:50",0.0,15.4,95.9,1006.9,257.9,0.5,0.9,330.9,0.00,14.8,17.2,"19:40:32",1
"16/05/09","20:00",0.0,15.3,95.9,1006.7,268.0,0.5,1.0,310.1,0.00,14.7,17.1,"19:54:56",1
"16/05/09","20:10",0.0,15.4,96.1,1006.4,258.1,0.5,0.6,244.8,0.00,14.8,17.1,"20:03:36",1
"16/05/09","20:20",0.0,15.4,96.1,1006.2,271.0,0.5,0.9,330.1,0.00,14.8,17.4,"20:14:32",1
"16/05/09","20:30",0.2,15.3,96.2,1006.9,254.7,0.6,1.1,233.7,0.00,14.7,17.4,"20:27:20",1
"16/05/09","20:40",0.0,15.3,96.2,1006.4,263.5,0.5,0.9,248.5,0.00,14.7,17.3,"20:37:04",1
"16/05/09","20:50",0.2,15.3,96.2,1007.1,281.2,0.5,1.0,299.2,0.00,14.7,17.1,"20:40:08",1
"16/05/09","21:00",0.0,15.3,96.2,1006.7,293.4,0.7,1.3,337.9,0.00,14.7,17.0,"20:52:24",1
"16/05/09","21:10",0.0,15.3,96.3,1006.7,253.5,0.2,0.6,255.2,0.00,14.8,17.2,"21:03:04",1
"16/05/09","21:20",0.0,15.4,96.3,1006.7,265.6,0.5,0.5,256.8,0.00,14.9,17.0,"21:11:20",1
"16/05/09","21:30",0.0,15.4,96.4,1006.7,256.8,0.3,0.9,234.5,0.00,14.9,17.1,"21:28:56",1
"16/05/09","21:40",0.0,15.4,96.4,1006.7,259.6,0.5,0.6,319.9,0.00,14.9,17.1,"21:31:44",1
"16/05/09","21:50",0.0,15.4,96.5,1006.9,274.1,0.7,0.9,287.4,0.00,14.9,17.1,"21:42:48",1
"16/05/09","22:00",0.0,15.4,96.5,1006.2,280.8,0.6,0.9,294.1,0.00,14.9,17.0,"21:57:20",1
"16/05/09","22:10",0.2,15.4,96.5,1006.4,292.7,1.0,1.3,314.4,0.00,14.9,16.8,"22:07:28",1
"16/05/09","22:20",0.2,15.3,96.5,1006.7,288.0,0.7,1.0,282.6,0.00,14.8,16.9,"22:15:52",1
"16/05/09","22:30",0.0,15.3,96.6,1006.4,294.1,0.6,0.8,310.2,0.00,14.8,17.1,"22:23:44",1
"16/05/09","22:40",0.0,15.4,96.7,1006.2,305.0,0.2,0.6,309.8,0.00,14.9,17.0,"22:36:08",1
"16/05/09","22:50",0.2,15.4,96.7,1006.4,299.4,0.6,0.8,287.1,0.00,14.9,17.0,"22:41:20",1
"16/05/09","23:00",0.0,15.4,96.7,1006.2,302.0,0.6,1.1,336.4,0.00,14.9,17.0,"22:57:04",1
"16/05/09","23:10",0.0,15.4,96.8,1006.0,301.8,0.3,0.6,287.0,0.00,14.9,16.8,"23:05:44",1
"16/05/09","23:20",0.0,15.4,96.8,1006.2,320.4,0.5,0.9,331.8,0.00,14.9,16.9,"23:11:28",1
"16/05/09","23:30",0.0,15.4,96.9,1006.2,305.0,0.5,0.8,313.2,0.00,15.0,16.9,"23:25:44",1
"16/05/09","23:40",0.0,15.5,96.9,1006.4,297.4,0.2,0.6,285.6,0.00,15.1,16.9,"23:35:44",1
"16/05/09","23:50",0.4,15.4,96.9,1006.2,307.4,0.3,0.6,336.9,0.00,15.0,17.0,"23:44:48",1
"16/05/09","24:00",0.0,15.4,96.9,1006.2,317.9,0.5,0.6,344.5,0.00,15.0,17.1,"23:53:12",1
